Wind_Speed
7 3 3 5 8 13 12 14 18 19 19 19 21 20 19 21 19 24 25 24 26 25 24 24 27 23 21 20 18 21 19 20 16 19 20 24 24 24
6 0 5 7 6 10 11 13 15 17 18 18 21 22 21 22 24 23 23 21 21 23 22 23 21 21 21 19 18 19 19 18 19 20 20 17 20 5
4 4 6 8 9 10 9 14 13 17 19 18 18 21 23 23 23 23 24 22 20 21 19 17 19 20 18 17 14 17 17 13 15 13 12 7 14 11
3 4 6 6 8 10 9 14 13 15 15 17 17 19 22 22 21 21 21 21 24 23 17 18 16 18 21 17 16 16 16 18 8 6 12 10 10 12
5 5 4 6 8 11 12 13 13 14 15 18 18 18 20 18 20 22 24 24 24 27 17 19 18 14 11 12 12 17 18 9 2 11 7 10 11 14
5 6 7 8 11 13 12 13 14 15 17 19 19 20 21 20 20 21 24 25 29 26 20 16 15 18 12 17 12 7 4 10 9 7 9 12 16 18
5 7 6 11 15 15 14 16 17 15 19 17 18 20 22 21 21 21 21 25 24 25 14 20 14 15 11 10 11 12 11 8 7 10 16 15 15 18
4 4 8 12 12 13 15 16 17 16 18 20 25 21 24 23 19 22 22 25 19 15 15 16 13 14 11 13 15 12 10 7 9 10 12 12 17 21
8 6 7 11 13 15 15 17 16 16 14 17 25 22 22 23 25 21 20 23 20 12 19 15 14 17 18 16 13 8 7 4 4 9 11 14 20 24
3 3 4 8 13 16 17 16 14 12 15 18 15 20 20 24 27 24 14 15 21 19 18 18 21 19 16 12 9 6 3 3 7 10 14 20 23 27
13 10 6 12 14 18 19 18 15 14 15 19 23 18 23 22 24 20 25 25 22 21 19 19 17 15 12 9 7 5 3 6 10 13 19 19 23 25
18 22 18 16 17 17 19 19 17 17 16 16 19 24 24 30 32 31 27 24 26 23 19 17 14 11 8 6 5 2 5 7 11 16 16 19 23 25
19 22 23 24 25 24 22 22 22 20 18 16 20 27 29 26 24 24 25 24 21 18 16 13 11 9 6 5 1 3 5 9 12 16 18 21 23 28
16 17 19 19 20 22 21 24 27 24 24 25 25 24 23 24 23 22 21 19 16 15 13 10 6 4 3 1 4 6 8 10 14 17 21 24 28 30
12 11 13 15 17 16 17 19 20 22 22 23 23 24 27 26 23 20 18 17 15 11 7 5 2 2 3 5 8 11 13 14 16 19 23 27 30 33
11 9 11 10 11 14 14 10 10 14 18 21 21 21 20 18 17 18 16 13 10 6 3 1 2 4 5 8 10 13 15 19 21 23 25 28 33 35
14 13 11 10 13 14 14 13 12 17 18 18 18 16 15 15 16 16 13 9 4 2 1 3 4 5 7 9 11 14 16 19 21 23 26 29 33 36
14 14 15 14 13 13 17 19 15 13 12 11 10 12 11 13 13 10 7 4 2 3 5 7 9 9 10 11 13 18 20 22 25 26 29 30 33 37
10 10 11 12 12 14 15 15 15 13 12 11 10 10 11 11 7 5 5 5 5 6 7 9 11 11 12 14 18 23 24 26 27 29 32 32 34 36
14 14 13 13 13 12 12 11 11 9 8 8 9 8 7 7 6 5 6 7 8 10 11 11 13 12 13 16 17 23 26 27 29 31 33 34 35 38
9 10 11 11 11 12 12 11 10 10 9 8 7 7 7 8 7 9 11 11 11 12 13 16 18 17 17 17 19 23 27 30 32 33 35 36 37 39
6 6 7 10 14 13 12 11 10 8 8 7 7 7 7 8 9 11 11 12 12 14 17 21 23 23 24 22 23 25 28 31 33 35 37 38 40 41
3 4 5 10 12 14 13 12 9 7 5 4 4 5 6 9 11 12 13 15 16 18 21 23 24 25 26 27 27 31 33 33 36 37 37 38 39 41
Wind_Direction
314 327 205 145 154 171 172 168 178 183 186 186 188 185 188 192 192 193 197 202 206 208 214 217 215 210 214 218 232 242 258 269 281 287 300 299 298 285
326 192 159 160 140 180 176 174 181 181 177 184 188 186 187 186 191 193 192 196 200 199 203 215 197 196 212 217 230 255 266 275 282 293 296 299 281 305
311 194 160 172 187 168 165 180 177 182 181 184 186 184 188 188 193 199 203 205 189 200 203 193 199 208 218 223 244 253 259 270 289 298 309 23 32 13
281 226 211 181 171 174 148 158 160 165 174 182 184 187 194 193 192 195 188 190 197 200 204 205 206 210 226 233 250 256 257 271 264 253 41 33 18 2
228 206 163 170 173 173 178 166 172 179 179 178 183 185 185 185 190 191 193 186 187 197 168 192 221 233 228 240 251 249 257 221 32 57 38 26 4 351
224 201 184 167 169 173 164 164 166 165 168 174 178 182 179 186 184 185 191 186 189 190 187 208 216 222 254 234 245 189 215 83 77 60 28 9 359 352
157 175 165 179 180 175 173 166 167 157 165 165 169 166 177 169 162 155 152 174 184 194 199 205 244 245 231 173 161 113 92 110 81 41 19 360 345 338
137 158 177 176 191 188 173 171 160 145 146 154 151 160 170 162 158 161 162 158 170 189 199 199 165 150 155 104 104 122 123 96 46 19 351 352 347 343
129 136 166 178 172 174 173 170 156 146 142 150 152 149 160 174 165 161 170 188 192 166 146 141 141 117 120 125 121 101 69 59 357 337 340 344 343 340
117 141 190 190 179 170 163 158 169 161 167 173 178 163 154 152 162 171 175 170 148 136 132 123 134 130 120 115 109 90 73 336 328 334 342 338 331 335
69 81 135 148 141 151 154 156 153 159 170 172 171 171 155 156 159 151 141 136 133 129 144 138 127 123 124 114 96 89 44 348 354 349 336 335 332 331
91 91 100 126 152 151 145 145 143 154 145 147 157 163 163 152 146 147 146 140 146 148 142 132 130 128 127 118 104 38 359 359 353 344 336 333 334 335
106 102 105 110 114 119 126 134 136 138 151 160 153 153 142 137 141 146 143 141 143 140 136 137 146 140 129 132 114 341 325 329 334 328 333 332 339 339
124 110 93 93 101 104 105 106 110 127 132 134 135 135 135 130 130 126 133 135 134 138 146 150 144 136 143 65 4 354 332 325 326 329 327 332 336 336
134 131 115 102 93 95 106 118 125 131 138 141 141 139 139 141 140 139 142 141 141 142 140 138 103 349 307 317 322 323 319 316 321 323 326 330 330 331
150 148 151 133 123 118 108 108 134 140 139 142 143 141 141 143 143 143 145 151 148 141 141 85 333 312 299 311 318 316 317 321 322 321 323 326 330 331
139 145 141 132 134 130 121 120 134 134 141 147 146 149 153 153 153 158 163 161 162 159 249 277 294 300 301 307 310 312 319 320 325 325 328 331 331 333
122 130 131 134 140 141 133 132 137 143 149 151 156 164 164 163 164 166 174 193 245 295 284 281 282 288 302 315 324 325 326 324 324 324 324 324 325 328
124 122 130 135 138 140 144 151 156 160 162 163 164 165 164 164 170 193 215 239 270 297 287 279 277 287 300 312 322 323 323 321 316 312 312 315 319 323
132 133 137 140 145 152 156 159 161 160 156 157 159 163 169 182 203 229 251 261 272 277 279 280 284 298 313 315 319 317 322 322 321 318 316 317 317 325
142 151 156 159 162 162 158 149 145 146 149 159 170 187 209 230 237 241 250 264 271 276 282 283 287 295 308 315 317 319 321 326 327 323 321 324 327 329
123 143 154 168 168 170 166 164 165 170 176 188 203 218 233 243 250 257 263 269 278 286 286 287 294 303 305 309 311 317 322 328 327 326 329 329 330 327
166 165 168 189 193 193 196 201 197 183 188 208 222 232 247 252 256 260 263 264 271 279 283 286 288 291 297 304 309 313 318 324 325 328 329 332 332 329
Height
5691 5689 5688 5688 5689 5691 5694 5697 5700 5705 5709 5714 5719 5724 5729 5734 5739 5743 5748 5753 5757 5761 5765 5769 5774 5779 5783 5785 5787 5789 5793 5793 5792 5792 5789 5788 5788 5787
5689 5689 5688 5689 5691 5692 5695 5697 5701 5705 5709 5714 5718 5723 5728 5732 5737 5742 5747 5751 5754 5759 5763 5767 5768 5776 5780 5782 5785 5787 5789 5789 5788 5788 5788 5786 5785 5786
5689 5689 5688 5689 5691 5693 5695 5697 5700 5704 5708 5712 5717 5722 5726 5730 5735 5740 5745 5750 5755 5758 5763 5763 5770 5775 5778 5780 5783 5785 5786 5787 5787 5786 5786 5787 5785 5785
5689 5688 5688 5689 5691 5692 5694 5696 5699 5703 5707 5711 5715 5720 5724 5729 5734 5739 5745 5749 5753 5757 5760 5764 5769 5773 5775 5779 5781 5782 5784 5785 5785 5785 5786 5786 5784 5783
5688 5688 5688 5689 5691 5692 5694 5697 5700 5703 5706 5710 5714 5718 5723 5728 5733 5737 5742 5747 5751 5755 5760 5764 5768 5771 5775 5777 5779 5780 5781 5782 5782 5785 5785 5783 5782 5782
5687 5687 5688 5689 5691 5693 5695 5698 5700 5703 5705 5709 5713 5718 5723 5727 5732 5736 5741 5746 5751 5755 5760 5763 5768 5770 5772 5775 5777 5779 5780 5783 5784 5784 5783 5781 5780 5778
5686 5688 5689 5690 5692 5694 5697 5699 5701 5703 5706 5709 5712 5718 5722 5727 5733 5738 5740 5745 5750 5755 5760 5764 5767 5768 5770 5773 5775 5778 5781 5782 5782 5782 5779 5779 5779 5777
5686 5688 5689 5691 5692 5694 5699 5700 5703 5706 5708 5711 5714 5718 5724 5728 5733 5738 5743 5747 5753 5757 5761 5763 5767 5769 5772 5774 5777 5779 5781 5780 5779 5779 5780 5778 5776 5773
5688 5689 5689 5691 5693 5696 5700 5703 5705 5707 5711 5714 5718 5720 5725 5730 5735 5742 5746 5750 5754 5757 5760 5764 5768 5771 5773 5775 5777 5777 5777 5779 5779 5779 5777 5775 5772 5768
5690 5690 5690 5691 5694 5697 5701 5705 5708 5710 5713 5717 5721 5724 5727 5732 5737 5742 5747 5751 5755 5758 5762 5765 5769 5771 5773 5775 5776 5778 5778 5779 5778 5777 5775 5772 5768 5765
5692 5691 5690 5693 5695 5697 5701 5705 5708 5711 5714 5719 5723 5725 5729 5733 5738 5744 5749 5753 5757 5761 5766 5769 5770 5772 5775 5776 5777 5778 5778 5777 5776 5774 5772 5769 5766 5762
5697 5694 5693 5696 5698 5701 5704 5707 5711 5714 5717 5722 5725 5728 5731 5735 5740 5744 5751 5755 5759 5764 5766 5769 5771 5773 5775 5777 5777 5777 5776 5774 5773 5771 5768 5766 5762 5758
5702 5701 5702 5702 5703 5705 5707 5710 5713 5718 5722 5726 5730 5734 5738 5742 5747 5751 5753 5758 5763 5766 5768 5771 5773 5775 5775 5775 5775 5773 5772 5772 5770 5768 5765 5762 5758 5753
5708 5708 5709 5710 5710 5711 5713 5714 5719 5726 5730 5733 5737 5741 5744 5748 5753 5757 5760 5763 5765 5768 5771 5773 5774 5774 5773 5773 5773 5772 5771 5770 5768 5765 5762 5758 5754 5749
5712 5714 5715 5716 5717 5720 5722 5725 5728 5731 5735 5738 5741 5744 5747 5751 5756 5760 5763 5766 5768 5770 5771 5772 5773 5773 5773 5773 5772 5771 5769 5767 5765 5762 5758 5754 5749 5744
5716 5718 5719 5721 5724 5726 5729 5732 5734 5736 5739 5742 5746 5749 5752 5756 5760 5763 5765 5768 5769 5770 5771 5772 5772 5772 5772 5772 5771 5769 5767 5763 5760 5757 5753 5749 5743 5737
5719 5721 5723 5725 5728 5731 5733 5736 5739 5741 5744 5747 5750 5753 5756 5759 5762 5765 5767 5767 5769 5770 5771 5771 5771 5770 5770 5769 5767 5765 5763 5760 5756 5752 5749 5744 5738 5733
5723 5725 5727 5730 5732 5734 5736 5740 5743 5746 5748 5751 5753 5756 5758 5760 5763 5765 5766 5767 5768 5769 5768 5768 5768 5768 5767 5766 5764 5761 5759 5755 5751 5747 5743 5739 5733 5726
5726 5728 5730 5732 5734 5737 5739 5742 5744 5747 5750 5752 5755 5757 5759 5761 5762 5763 5765 5766 5766 5766 5767 5766 5765 5765 5763 5761 5758 5755 5753 5749 5746 5741 5738 5733 5726 5720
5729 5731 5733 5735 5737 5739 5741 5743 5745 5748 5750 5752 5754 5756 5758 5760 5761 5762 5763 5763 5763 5762 5762 5762 5762 5761 5759 5757 5755 5751 5748 5745 5741 5736 5731 5726 5720 5714
5731 5732 5734 5736 5737 5739 5742 5744 5746 5747 5749 5752 5753 5755 5756 5757 5758 5758 5759 5759 5759 5759 5759 5758 5757 5756 5755 5754 5751 5747 5744 5740 5734 5729 5724 5718 5712 5706
5733 5734 5736 5737 5738 5740 5743 5745 5746 5748 5749 5751 5752 5753 5754 5754 5755 5756 5756 5755 5755 5754 5753 5752 5751 5749 5748 5746 5744 5740 5737 5732 5727 5722 5716 5711 5705 5698
5734 5735 5736 5738 5740 5742 5743 5745 5747 5748 5749 5750 5751 5751 5751 5751 5752 5752 5752 5751 5750 5750 5749 5747 5746 5744 5741 5738 5736 5732 5728 5724 5719 5713 5708 5702 5696 5690